TimeAKST,TemperatureF,Dew PointF,Humidity,Sea Level PressureIn,VisibilityMPH,Wind Direction,Wind SpeedMPH,Gust SpeedMPH,PrecipitationIn,Events,Conditions,WindDirDegrees,DateUTC
12:16 AM,37.4,30.2,75,29.17,10.0,West,8.1,-,N/A,,Overcast,270,2013-02-04 09:16:00
1:56 AM,37.4,30.2,75,29.20,10.0,West,9.2,-,N/A,,Overcast,260,2013-02-04 10:56:00
2:16 AM,37.4,30.2,75,29.21,10.0,West,9.2,-,N/A,,Overcast,260,2013-02-04 11:16:00
2:36 AM,37.4,30.2,75,29.22,10.0,WSW,10.4,-,N/A,,Overcast,240,2013-02-04 11:36:00
2:56 AM,37.4,30.2,75,29.22,10.0,WSW,9.2,-,N/A,,Overcast,250,2013-02-04 11:56:00
3:16 AM,37.4,30.2,75,29.23,10.0,West,6.9,-,N/A,,Overcast,260,2013-02-04 12:16:00
3:36 AM,37.4,28.4,70,29.23,10.0,WSW,9.2,-,N/A,,Overcast,250,2013-02-04 12:36:00
3:56 AM,37.4,28.4,70,29.24,10.0,West,6.9,-,N/A,,Overcast,270,2013-02-04 12:56:00
4:16 AM,37.4,28.4,70,29.24,10.0,West,5.8,-,N/A,,Overcast,280,2013-02-04 13:16:00
4:36 AM,37.4,30.2,75,29.25,10.0,West,9.2,-,N/A,,Overcast,270,2013-02-04 13:36:00
4:56 AM,37.4,28.4,70,29.25,10.0,WSW,6.9,-,N/A,,Overcast,250,2013-02-04 13:56:00
5:16 AM,37.4,30.2,75,29.25,10.0,WSW,9.2,16.1,N/A,,Overcast,240,2013-02-04 14:16:00
5:36 AM,37.4,28.4,70,29.26,10.0,SW,9.2,-,N/A,,Overcast,230,2013-02-04 14:36:00
5:56 AM,37.4,30.2,75,29.27,10.0,West,6.9,-,N/A,,Overcast,270,2013-02-04 14:56:00
6:16 AM,37.4,28.4,70,29.27,10.0,WNW,5.8,-,N/A,,Overcast,290,2013-02-04 15:16:00
6:36 AM,37.4,28.4,70,29.27,10.0,WNW,5.8,-,N/A,,Overcast,290,2013-02-04 15:36:00
6:56 AM,37.4,28.4,70,29.28,10.0,West,5.8,-,N/A,,Overcast,280,2013-02-04 15:56:00
7:16 AM,37.4,28.4,70,29.28,10.0,NW,8.1,-,N/A,,Overcast,320,2013-02-04 16:16:00
7:36 AM,37.4,28.4,70,29.29,10.0,West,8.1,-,N/A,,Overcast,270,2013-02-04 16:36:00
7:56 AM,37.4,28.4,70,29.30,10.0,West,11.5,-,N/A,,Overcast,280,2013-02-04 16:56:00
8:16 AM,37.4,28.4,70,29.30,10.0,West,10.4,-,N/A,,Overcast,280,2013-02-04 17:16:00
8:36 AM,37.4,28.4,70,29.31,10.0,West,8.1,-,N/A,,Overcast,280,2013-02-04 17:36:00
8:56 AM,37.4,28.4,70,29.32,10.0,West,10.4,-,N/A,,Overcast,270,2013-02-04 17:56:00
9:16 AM,37.4,28.4,70,29.33,10.0,West,6.9,-,N/A,,Overcast,260,2013-02-04 18:16:00
9:36 AM,35.6,28.4,75,29.33,10.0,WSW,11.5,-,N/A,,Overcast,250,2013-02-04 18:36:00
9:56 AM,37.4,28.4,70,29.33,10.0,West,12.7,-,N/A,,Overcast,260,2013-02-04 18:56:00
10:16 AM,35.6,28.4,75,29.34,10.0,WSW,12.7,-,N/A,,Scattered Clouds,250,2013-02-04 19:16:00
10:36 AM,35.6,28.4,75,29.35,10.0,West,13.8,-,N/A,,Mostly Cloudy,260,2013-02-04 19:36:00
10:56 AM,37.4,28.4,70,29.36,10.0,WSW,11.5,-,N/A,,Overcast,250,2013-02-04 19:56:00
11:16 AM,37.4,28.4,70,29.37,10.0,WSW,12.7,-,N/A,,Overcast,250,2013-02-04 20:16:00
11:36 AM,35.6,28.4,75,29.38,10.0,West,9.2,-,N/A,,Mostly Cloudy,270,2013-02-04 20:36:00
11:56 AM,37.4,26.6,65,29.39,10.0,WNW,5.8,-,N/A,,Mostly Cloudy,290,2013-02-04 20:56:00
12:16 PM,37.4,28.4,70,29.39,10.0,West,3.5,-,N/A,,Scattered Clouds,270,2013-02-04 21:16:00
12:36 PM,37.4,28.4,70,29.39,10.0,WSW,4.6,-,N/A,,Clear,250,2013-02-04 21:36:00
12:56 PM,37.4,26.6,65,29.39,10.0,West,5.8,-,N/A,,Clear,260,2013-02-04 21:56:00
1:16 PM,37.4,28.4,70,29.39,10.0,SW,11.5,-,N/A,,Partly Cloudy,220,2013-02-04 22:16:00
1:36 PM,37.4,28.4,70,29.40,10.0,WSW,15.0,-,N/A,,Scattered Clouds,240,2013-02-04 22:36:00
1:56 PM,37.4,28.4,70,29.40,10.0,WSW,13.8,-,N/A,,Mostly Cloudy,240,2013-02-04 22:56:00
2:16 PM,37.4,28.4,70,29.40,10.0,WSW,8.1,-,N/A,,Overcast,240,2013-02-04 23:16:00
2:36 PM,37.4,28.4,70,29.40,10.0,WSW,8.1,-,N/A,,Overcast,250,2013-02-04 23:36:00
2:56 PM,37.4,28.4,70,29.41,10.0,WNW,4.6,-,N/A,,Overcast,290,2013-02-04 23:56:00
3:16 PM,37.4,26.6,65,29.41,10.0,WNW,4.6,-,N/A,,Overcast,300,2013-02-05 00:16:00
3:36 PM,37.4,28.4,70,29.41,10.0,SW,4.6,-,N/A,,Mostly Cloudy,230,2013-02-05 00:36:00
3:56 PM,37.4,28.4,70,29.41,10.0,Calm,Calm,-,N/A,,Overcast,0,2013-02-05 00:56:00
4:16 PM,37.4,28.4,70,29.41,10.0,Calm,Calm,-,N/A,,Overcast,0,2013-02-05 01:16:00
4:36 PM,37.4,28.4,70,29.41,10.0,Calm,Calm,-,N/A,,Overcast,0,2013-02-05 01:36:00
4:56 PM,37.4,28.4,70,29.41,10.0,Calm,Calm,-,N/A,,Overcast,0,2013-02-05 01:56:00
5:16 PM,37.4,28.4,70,29.42,10.0,Calm,Calm,-,N/A,,Overcast,0,2013-02-05 02:16:00
5:36 PM,35.6,28.4,75,29.42,10.0,North,5.8,-,N/A,,Overcast,10,2013-02-05 02:36:00
5:56 PM,35.6,28.4,75,29.42,10.0,NNE,4.6,-,N/A,,Overcast,30,2013-02-05 02:56:00
6:16 PM,35.6,28.4,75,29.42,10.0,Calm,Calm,-,N/A,,Overcast,0,2013-02-05 03:16:00
6:36 PM,35.6,28.4,75,29.42,10.0,Calm,Calm,-,N/A,,Overcast,0,2013-02-05 03:36:00
6:56 PM,35.6,28.4,75,29.43,10.0,Calm,Calm,-,N/A,,Overcast,0,2013-02-05 03:56:00
7:16 PM,35.6,28.4,75,29.43,10.0,Calm,Calm,-,N/A,,Overcast,0,2013-02-05 04:16:00
7:36 PM,35.6,28.4,75,29.43,10.0,Calm,Calm,-,N/A,,Overcast,0,2013-02-05 04:36:00
7:56 PM,35.6,28.4,75,29.44,10.0,Calm,Calm,-,N/A,,Overcast,0,2013-02-05 04:56:00
8:16 PM,35.6,28.4,75,29.44,10.0,ENE,5.8,-,N/A,,Overcast,60,2013-02-05 05:16:00
8:36 PM,35.6,28.4,75,29.45,10.0,NE,4.6,-,N/A,,Overcast,40,2013-02-05 05:36:00
8:56 PM,35.6,28.4,75,29.45,10.0,North,4.6,-,N/A,,Overcast,350,2013-02-05 05:56:00
9:16 PM,35.6,28.4,75,29.45,10.0,Calm,Calm,-,N/A,,Overcast,0,2013-02-05 06:16:00
9:36 PM,35.6,28.4,75,29.45,10.0,Calm,Calm,-,N/A,,Overcast,0,2013-02-05 06:36:00
9:56 PM,35.6,28.4,75,29.45,10.0,Calm,Calm,-,N/A,,Overcast,0,2013-02-05 06:56:00
10:16 PM,35.6,28.4,75,29.45,10.0,Calm,Calm,-,N/A,,Overcast,0,2013-02-05 07:16:00
10:36 PM,33.8,28.4,81,29.45,10.0,Calm,Calm,-,N/A,,Overcast,0,2013-02-05 07:36:00
10:56 PM,33.8,30.2,87,29.45,4.0,Calm,Calm,-,N/A,,Overcast,0,2013-02-05 07:56:00
11:16 PM,33.8,30.2,87,29.45,9.0,Calm,Calm,-,N/A,,Overcast,0,2013-02-05 08:16:00
11:36 PM,33.8,30.2,87,29.45,9.0,Calm,Calm,-,N/A,,Overcast,0,2013-02-05 08:36:00
11:56 PM,33.8,30.2,87,29.45,6.0,Calm,Calm,-,N/A,,Overcast,0,2013-02-05 08:56:00